GW3754 Weather Reports


time (UTC)temp
C
wind
direction
speed
KPH
gust
KPH
rain 1hr
cm
rain 24hr
cm
rain mn
cm
humidity
%
barometer
mb
20260504081708 15 181 6.4 9.7 0.00 0.00 0.00 63 1009.2
20260504081204 16 202 11.3 16.1 0.00 0.00 0.00 62 1009.3
20260504080700 15 216 4.8 4.8 0.00 0.00 0.00 62 1009.3
20260504080157 15 188 8.0 9.7 0.00 0.00 0.00 62 1009.4
20260504070125 16 196 4.8 8.0 0.00 0.00 0.00 61 1009.6
20260504050514 16 205 8.0 9.7 0.00 0.00 0.00 59 1010.3
20260504050010 16 169 8.0 12.9 0.00 0.00 0.00 59 1010.3
20260504045507 16 222 8.0 12.9 0.00 0.00 0.00 59 1010.3
20260504045002 16 190 9.7 12.9 0.00 0.00 0.00 59 1010.2
20260504044500 16 205 4.8 4.8 0.00 0.00 0.00 58 1010.5
20260504043957 16 215 6.4 8.0 0.00 0.00 0.00 58 1010.5
20260504043454 16 187 8.0 11.3 0.00 0.00 0.00 58 1010.6
20260504042952 16 232 8.0 11.3 0.00 0.00 0.00 57 1010.6
20260504042448 16 228 8.0 11.3 0.00 0.00 0.00 57 1010.5
20260504041945 16 154 1.6 1.6 0.00 0.00 0.00 57 1010.6
20260504041441 16 46 3.2 9.7 0.00 0.00 0.00 57 1010.9
20260504040937 16 199 3.2 3.2 0.00 0.00 0.00 57 1011.1
20260504040435 16 213 6.4 8.0 0.00 0.00 0.00 56 1011.1
20260504035931 16 210 6.4 9.7 0.00 0.00 0.00 56 1011.1
20260504035428 16 214 1.6 1.6 0.00 0.00 0.00 56 1011.3
20260504034925 16 202 4.8 4.8 0.00 0.00 0.00 55 1011.3
20260504034423 16 203 6.4 9.7 0.00 0.00 0.00 55 1011.2
20260504033919 16 227 4.8 8.0 0.00 0.00 0.00 56 1011.3
20260504033417 16 123 8.0 11.3 0.00 0.00 0.00 55 1011.2
20260504032914 16 161 4.8 8.0 0.00 0.00 0.00 55 1011.0
20260504032411 16 174 3.2 3.2 0.00 0.00 0.00 55 1011.3
20260504031902 16 159 4.8 9.7 0.00 0.00 0.00 55 1011.4
20260504031359 16 212 6.4 8.0 0.00 0.00 0.00 55 1011.4
20260504030855 16 76 0.0 1.6 0.00 0.00 0.00 55 1011.7
20260504030353 16 90 0.0 0.0 0.00 0.00 0.00 55 1011.7
20260504025849 16 70 0.0 1.6 0.00 0.00 0.00 55 1011.7
20260504025346 16 93 1.6 1.6 0.00 0.00 0.00 55 1011.7
20260504024843 16 92 0.0 0.0 0.00 0.00 0.00 55 1011.6
20260504024339 16 91 0.0 1.6 0.00 0.00 0.00 55 1011.8
20260504023836 17 271 0.0 1.6 0.00 0.00 0.00 54 1011.7
20260504023333 17 203 4.8 8.0 0.00 0.00 0.00 54 1011.6
20260504022829 17 75 1.6 3.2 0.00 0.00 0.00 54 1011.9
20260504022326 17 122 0.0 1.6 0.00 0.00 0.00 54 1011.9
20260504021822 17 18 0.0 1.6 0.00 0.00 0.00 54 1011.8
20260504021320 17 119 1.6 3.2 0.00 0.00 0.00 54 1011.9
20260504020817 17 183 3.2 3.2 0.00 0.00 0.00 53 1011.7
20260504020313 17 208 4.8 8.0 0.00 0.00 0.00 53 1011.8
20260504015809 17 202 4.8 8.0 0.00 0.00 0.00 53 1011.8
20260504015306 17 116 1.6 3.2 0.00 0.00 0.00 54 1011.9
20260504014802 17 187 0.0 1.6 0.00 0.00 0.00 54 1011.8
20260504014258 17 57 0.0 0.0 0.00 0.00 0.00 53 1011.9
20260504013756 17 163 1.6 3.2 0.00 0.00 0.00 52 1011.9
20260504013253 17 50 0.0 0.0 0.00 0.00 0.00 52 1011.8
20260504012749 17 259 1.6 1.6 0.00 0.00 0.00 51 1011.8
20260504012248 18 182 4.8 4.8 0.00 0.00 0.00 51 1012.0
20260504011744 18 192 3.2 4.8 0.00 0.00 0.00 51 1011.9
20260504011241 18 146 4.8 4.8 0.00 0.00 0.00 50 1011.8
20260504010737 18 167 3.2 3.2 0.00 0.00 0.00 50 1011.8
20260504010233 18 136 4.8 8.0 0.00 0.00 0.00 49 1012.0
20260504005730 18 157 4.8 4.8 0.00 0.00 0.00 49 1011.8
20260504005227 18 200 8.0 9.7 0.00 0.00 0.00 49 1012.0
20260504004724 18 247 4.8 4.8 0.00 0.00 0.00 49 1011.5
20260504004221 18 148 8.0 11.3 0.00 0.00 0.00 49 1011.9
20260504003718 18 232 9.7 11.3 0.00 0.00 0.00 49 1011.5
20260504003215 18 199 11.3 11.3 0.00 0.00 0.00 48 1011.6
20260504002712 18 211 6.4 8.0 0.00 0.00 0.00 48 1011.6
20260504002209 18 193 9.7 11.3 0.00 0.00 0.00 48 1011.6
20260504001707 18 219 14.5 20.9 0.00 0.00 0.00 48 1011.3
20260504001203 18 226 12.9 16.1 0.00 0.00 0.00 48 1011.4
20260504000700 19 172 8.0 9.7 0.00 0.00 0.00 47 1011.4
20260504000157 19 201 16.1 17.7 0.00 0.00 0.00 47 1011.4
20260503235655 19 238 8.0 11.3 0.00 0.00 0.00 46 1011.2
20260503235151 19 224 11.3 16.1 0.00 0.00 0.00 45 1011.2
20260503234650 19 182 17.7 20.9 0.00 0.00 0.00 45 1011.2
20260503234148 20 223 8.0 12.9 0.00 0.00 0.00 46 1011.1
20260503233644 19 179 11.3 14.5 0.00 0.00 0.00 46 1011.4
20260503233140 20 221 17.7 22.5 0.00 0.00 0.00 45 1011.1
20260503232637 20 183 11.3 16.1 0.00 0.00 0.00 45 1011.2
20260503232134 20 213 14.5 17.7 0.00 0.00 0.00 45 1011.4
20260503231632 20 201 16.1 24.1 0.00 0.00 0.00 45 1011.5
20260503231128 20 245 12.9 16.1 0.00 0.00 0.00 44 1011.6
20260503230625 20 189 16.1 22.5 0.00 0.00 0.00 44 1011.8
20260503230122 20 197 12.9 14.5 0.00 0.00 0.00 44 1011.7
20260503225620 20 180 8.0 11.3 0.00 0.00 0.00 45 1011.6
20260503225119 20 203 8.0 11.3 0.00 0.00 0.00 45 1011.7
20260503224617 20 206 16.1 20.9 0.00 0.00 0.00 44 1011.8
20260503224115 20 254 8.0 11.3 0.00 0.00 0.00 44 1011.9
20260503223613 20 216 17.7 20.9 0.00 0.00 0.00 44 1012.0
20260503223108 20 222 9.7 11.3 0.00 0.00 0.00 45 1012.1
20260503222606 20 232 16.1 20.9 0.00 0.00 0.00 44 1012.3
20260503222104 20 175 14.5 17.7 0.00 0.00 0.00 44 1012.2
20260503221602 20 216 19.3 24.1 0.00 0.00 0.00 44 1012.3
20260503221059 20 242 16.1 27.4 0.00 0.00 0.00 44 1012.6
20260503220555 19 187 14.5 17.7 0.00 0.00 0.00 43 1012.5
20260503220052 20 222 19.3 24.1 0.00 0.00 0.00 43 1012.5
20260503215549 20 210 17.7 22.5 0.00 0.00 0.00 44 1012.7
20260503215046 20 200 8.0 11.3 0.00 0.00 0.00 45 1012.4
20260503214544 20 184 16.1 17.7 0.00 0.00 0.00 45 1013.0
20260503214041 19 174 17.7 20.9 0.00 0.00 0.00 44 1012.8
20260503213539 19 192 11.3 14.5 0.00 0.00 0.00 44 1013.1
20260503213035 19 206 9.7 12.9 0.00 0.00 0.00 44 1013.4
20260503212533 19 286 11.3 24.1 0.00 0.00 0.00 44 1013.2
20260503212030 20 236 22.5 27.4 0.00 0.00 0.00 43 1013.5
20260503211527 20 193 11.3 14.5 0.00 0.00 0.00 44 1013.4
20260503211023 20 213 16.1 24.1 0.00 0.00 0.00 44 1013.4
20260503210520 19 195 12.9 17.7 0.00 0.00 0.00 44 1013.6
20260503210015 19 236 12.9 16.1 0.00 0.00 0.00 44 1014.0
20260503205512 19 212 8.0 12.9 0.00 0.00 0.00 45 1013.9
20260503205008 19 224 9.7 12.9 0.00 0.00 0.00 45 1014.1
20260503204506 18 222 16.1 22.5 0.00 0.00 0.00 44 1014.1
20260503204003 18 211 22.5 27.4 0.00 0.00 0.00 45 1014.3
20260503203500 18 251 12.9 14.5 0.00 0.00 0.00 45 1014.3
20260503202956 19 214 16.1 22.5 0.00 0.00 0.00 44 1014.4
20260503202455 19 231 14.5 16.1 0.00 0.00 0.00 44 1014.9
20260503201953 19 213 16.1 20.9 0.00 0.00 0.00 44 1014.9
20260503201450 18 198 11.3 16.1 0.00 0.00 0.00 45 1015.0
20260503200947 18 220 12.9 14.5 0.00 0.00 0.00 46 1015.3
20260503200444 18 218 17.7 22.5 0.00 0.00 0.00 45 1015.4
20260503195940 18 234 11.3 20.9 0.00 0.00 0.00 46 1015.3
20260503195438 18 204 17.7 24.1 0.00 0.00 0.00 46 1015.6
20260503194934 18 197 9.7 11.3 0.00 0.00 0.00 47 1015.6
20260503194431 18 275 17.7 24.1 0.00 0.00 0.00 46 1015.8
20260503193926 18 232 19.3 27.4 0.00 0.00 0.00 47 1015.9
20260503193422 18 279 8.0 11.3 0.00 0.00 0.00 46 1016.0
20260503192918 18 225 16.1 17.7 0.00 0.00 0.00 47 1016.1
20260503192414 18 186 9.7 11.3 0.00 0.00 0.00 47 1016.0
20260503191910 18 224 8.0 11.3 0.00 0.00 0.00 47 1016.4
20260503191408 18 232 9.7 11.3 0.00 0.00 0.00 48 1016.2
20260503190904 18 211 12.9 17.7 0.00 0.00 0.00 46 1016.3
20260503190402 17 233 17.7 22.5 0.00 0.00 0.00 48 1016.4
20260503185858 17 210 12.9 16.1 0.00 0.00 0.00 49 1016.5
20260503185354 17 250 20.9 27.4 0.00 0.00 0.00 47 1016.5
20260503184854 17 231 14.5 25.7 0.00 0.00 0.00 49 1016.8
20260503184351 17 236 19.3 25.7 0.00 0.00 0.00 49 1017.1
20260503183846 17 202 17.7 20.9 0.00 0.00 0.00 50 1017.1
20260503183344 17 230 8.0 12.9 0.00 0.00 0.00 50 1017.4
20260503182841 17 224 19.3 24.1 0.00 0.00 0.00 51 1017.5
20260503182340 17 213 17.7 24.1 0.00 0.00 0.00 50 1017.6
20260503181837 17 227 12.9 16.1 0.00 0.00 0.00 50 1017.5
20260503181334 17 233 4.8 8.0 0.00 0.00 0.00 49 1017.7
20260503180830 17 215 14.5 16.1 0.00 0.00 0.00 51 1017.6
20260503180328 17 254 11.3 12.9 0.00 0.00 0.00 51 1017.5
20260503175824 16 190 12.9 17.7 0.00 0.00 0.00 52 1018.0
20260503175323 17 192 12.9 14.5 0.00 0.00 0.00 50 1018.0
20260503174818 17 200 14.5 16.1 0.00 0.00 0.00 50 1017.8
20260503174316 17 246 8.0 11.3 0.00 0.00 0.00 51 1018.2
20260503173811 16 188 9.7 12.9 0.00 0.00 0.00 51 1018.6
20260503173308 16 172 4.8 4.8 0.00 0.00 0.00 52 1018.3
20260503172805 16 195 16.1 17.7 0.00 0.00 0.00 50 1018.7
20260503172305 16 248 14.5 20.9 0.00 0.00 0.00 51 1018.6
20260503171758 16 265 17.7 24.1 0.00 0.00 0.00 51 1018.7
20260503171255 16 112 6.4 9.7 0.00 0.00 0.00 54 1019.0
20260503170752 16 246 8.0 9.7 0.00 0.00 0.00 52 1018.8
20260503170249 16 223 9.7 12.9 0.00 0.00 0.00 52 1018.7
20260503160211 15 125 11.3 16.1 0.00 0.00 0.00 51 1019.5
20260503150641 14 224 14.5 16.1 0.00 0.00 0.00 58 1020.0
20260503150137 14 164 8.0 9.7 0.00 0.00 0.00 57 1019.8
20260503131031 11 241 4.8 8.0 0.00 0.00 0.00 74 1019.8
20260503130528 10 183 3.2 4.8 0.00 0.00 0.00 75 1019.9
20260503110419 4 39 0.0 0.0 0.00 0.00 0.00 92 1019.1